Weather in Aksakovo

Russia / Orenburg Oblast     53°51′37″N   52°38′03″E
temp.,
°C
wind,
m/s
gust,
m/s
humid.,
%
clouds,
%
prec.,
mm/h
press.,
hPa
HPBL,
m
1 march, mon
mon123:00−17nnw339358 0.0 101137
02:00−17nnw239376 0.0 101346
05:00−19nw229464 0.0 101520
08:00−19nw229572 0.0 101720
11:00−18nw239237 0.0 1019165
14:00−15nw248827 0.0 1020368
17:00−14wnw359163 0.0 1021397
20:00−19wnw239780 0.0 102121
2 march, tue
tue223:00−22w229943 0.0 102120
02:00−22sw2210054 0.0 102020
05:00−22ssw3410065 0.0 101877
08:00−17s41097100 0.1 1014274
11:00−12ssw61195100 0.8 1012480
14:00−8sw71294100 0.9 1008615
17:00−5ssw71395100 1.8 1005666
20:00−3sw71396100 1.2 1002628
3 march, wed
wed323:00−2sw71396100 2.6 1001620
02:00−1wsw599799 0.6 1000412
05:00−3w479699 0.6 1001336
08:00−6wsw369692 0.0 1001157
11:00−8wsw259792 0.1 1003165
14:00−5wsw349597 0.1 1003324
17:00−3w469295 0.1 1003526
20:00−5w369699 0.1 1004167
4 march, thu
thu423:00−10wnw349481 0.2 100538
02:00−11wnw349660 0.0 100665
05:00−13w339767 0.1 100746
08:00−15wsw339969 0.0 100845
11:00−11wsw599584 0.1 1008293
14:00−8sw5994100 0.1 1008417
17:00−6sw71193100 0.3 1006598
20:00−5ssw81593100 0.1 1004714
5 march, fri
fri523:00−3sw91695100 1.2 1002947
02:00−1sw111795100 1.7 999972
05:00−1sw111894100 2.4 9981065
08:00−2wsw111894100 0.8 999981
11:00−1w101494100 1.4 10021148
14:00−4w6118053 0.1 1006761
17:00−5w488827 0.1 1010413
20:00−11w23931 0.0 101221